BAW273 EGLL-TBPB

Flight info

Callsign BAW273
Flight time N/A
Altitude 60000
Route N560F280 CPT CONKO LESLU/M200F450F600 4849N01443W 4649N02000W 4500N02353W 4136N03000W 3422N04000W 2700N04748W 2438N05000W 1308N05945W DCT
Aircraft CONC/H-SRWXY/C

Departure

Time N/A
Airport London Heathrow Airport (EGLL)

Arrival

Time 2026-04-28 14:57
Airport Grantley Adams International Airport (TBPB)
Time Latitude Longitude Altitude Speed Heading
2026-04-28 14:07 18.02240 -55.81143 59374 ft 969 kts 220°
2026-04-28 14:07 17.97076 -55.85431 58932 ft 934 kts 220°
2026-04-28 14:08 17.92117 -55.89545 58521 ft 899 kts 220°
2026-04-28 14:08 17.87305 -55.93535 58119 ft 863 kts 220°
2026-04-28 14:08 17.82697 -55.97352 57731 ft 827 kts 220°
2026-04-28 14:08 17.78236 -56.01046 57336 ft 791 kts 220°
2026-04-28 14:09 17.74058 -56.04504 56993 ft 766 kts 220°
2026-04-28 14:09 17.69951 -56.07902 56726 ft 728 kts 220°
2026-04-28 14:09 17.66119 -56.11063 55892 ft 687 kts 220°
2026-04-28 14:09 17.62393 -56.14149 54507 ft 679 kts 220°
2026-04-28 14:10 17.58710 -56.17193 53326 ft 678 kts 220°
2026-04-28 14:10 17.54985 -56.20265 52180 ft 682 kts 220°
2026-04-28 14:10 17.51249 -56.23350 51071 ft 687 kts 220°
2026-04-28 14:10 17.47517 -56.26425 49991 ft 694 kts 220°
2026-04-28 14:11 17.43721 -56.29552 48905 ft 688 kts 220°
2026-04-28 14:11 17.40052 -56.32568 47500 ft 647 kts 220°
2026-04-28 14:11 17.36711 -56.35305 42510 ft 603 kts 220°
2026-04-28 14:11 17.33657 -56.37806 37432 ft 554 kts 221°
2026-04-28 14:12 17.30692 -56.40274 33706 ft 566 kts 220°
2026-04-28 14:12 17.27727 -56.42715 33507 ft 531 kts 220°
2026-04-28 14:12 17.24832 -56.45081 35320 ft 542 kts 220°
2026-04-28 14:12 17.21804 -56.47565 34802 ft 551 kts 220°
2026-04-28 14:13 17.18813 -56.50036 33319 ft 545 kts 220°
2026-04-28 14:13 17.15938 -56.52391 33268 ft 507 kts 220°
2026-04-28 14:13 17.13098 -56.54717 32960 ft 544 kts 220°
2026-04-28 14:13 17.10096 -56.57187 32795 ft 552 kts 219°
2026-04-28 14:14 17.07065 -56.59658 32511 ft 549 kts 219°
2026-04-28 14:14 17.04073 -56.62103 32212 ft 542 kts 219°
2026-04-28 14:14 17.01108 -56.64540 32061 ft 539 kts 219°
2026-04-28 14:14 16.98171 -56.66942 32060 ft 536 kts 219°
2026-04-28 14:15 16.92274 -56.71766 32088 ft 540 kts 219°
2026-04-28 14:15 16.86356 -56.76601 32099 ft 540 kts 219°
2026-04-28 14:16 16.80451 -56.81424 32091 ft 540 kts 219°
2026-04-28 14:16 16.74517 -56.86265 32093 ft 539 kts 219°
2026-04-28 14:17 16.68606 -56.91085 32087 ft 540 kts 219°
2026-04-28 14:17 16.62663 -56.95927 32092 ft 541 kts 219°
2026-04-28 14:18 16.56728 -57.00757 32085 ft 543 kts 219°
2026-04-28 14:18 16.50802 -57.05578 32079 ft 542 kts 219°
2026-04-28 14:19 16.44852 -57.10413 32078 ft 542 kts 219°
2026-04-28 14:19 16.38897 -57.15248 32069 ft 541 kts 219°
2026-04-28 14:20 16.32926 -57.20092 32074 ft 543 kts 218°
2026-04-28 14:20 16.26961 -57.24928 32065 ft 543 kts 218°
2026-04-28 14:21 16.20997 -57.29758 32060 ft 544 kts 218°
2026-04-28 14:21 16.15034 -57.34586 32062 ft 544 kts 218°
2026-04-28 14:22 16.09037 -57.39435 32058 ft 545 kts 218°
2026-04-28 14:22 16.03039 -57.44282 32053 ft 544 kts 218°
2026-04-28 14:23 15.97076 -57.49100 32052 ft 544 kts 218°
2026-04-28 14:23 15.91106 -57.53916 32053 ft 544 kts 218°
2026-04-28 14:24 15.85096 -57.58762 32055 ft 545 kts 218°
2026-04-28 14:24 15.79134 -57.63564 32055 ft 544 kts 218°
2026-04-28 14:25 15.73152 -57.68380 32061 ft 545 kts 218°
2026-04-28 14:25 15.67164 -57.73196 32059 ft 543 kts 218°
2026-04-28 14:26 15.61201 -57.77990 32061 ft 545 kts 218°
2026-04-28 14:26 15.55195 -57.82814 32056 ft 545 kts 218°
2026-04-28 14:27 15.49215 -57.87614 32059 ft 545 kts 218°
2026-04-28 14:27 15.43228 -57.92416 32059 ft 546 kts 218°
2026-04-28 14:28 15.37181 -57.97261 32057 ft 547 kts 217°
2026-04-28 14:28 15.31194 -58.02055 32054 ft 547 kts 217°
2026-04-28 14:29 15.25180 -58.06895 32053 ft 546 kts 218°
2026-04-28 14:29 15.19227 -58.11729 32055 ft 545 kts 218°
2026-04-28 14:30 15.13191 -58.16592 32057 ft 546 kts 218°
2026-04-28 14:30 15.07215 -58.21381 32055 ft 546 kts 218°
2026-04-28 14:31 15.01187 -58.26208 32054 ft 547 kts 217°
2026-04-28 14:31 14.95134 -58.31057 32055 ft 548 kts 217°
2026-04-28 14:32 14.89095 -58.35893 32053 ft 548 kts 218°
2026-04-28 14:32 14.83066 -58.40720 32055 ft 550 kts 218°
2026-04-28 14:33 14.77044 -58.45542 32053 ft 549 kts 218°
2026-04-28 14:33 14.70983 -58.50391 32054 ft 548 kts 218°
2026-04-28 14:34 14.61954 -58.57623 32052 ft 549 kts 218°
2026-04-28 14:35 14.55882 -58.62402 32046 ft 549 kts 217°
2026-04-28 14:35 14.49809 -58.67195 32048 ft 549 kts 217°
2026-04-28 14:36 14.43772 -58.71971 32047 ft 549 kts 217°
2026-04-28 14:36 14.40731 -58.74379 31922 ft 551 kts 217°
2026-04-28 14:36 14.37686 -58.76788 31563 ft 550 kts 217°
2026-04-28 14:36 14.34674 -58.79170 31216 ft 548 kts 217°
2026-04-28 14:37 14.31642 -58.81569 30870 ft 543 kts 217°
2026-04-28 14:37 14.28672 -58.83919 30526 ft 542 kts 217°
2026-04-28 14:37 14.25685 -58.86282 30180 ft 540 kts 217°
2026-04-28 14:37 14.22691 -58.88648 29837 ft 539 kts 217°
2026-04-28 14:38 14.19726 -58.90991 29488 ft 539 kts 217°
2026-04-28 14:38 14.16756 -58.93336 29144 ft 536 kts 217°
2026-04-28 14:38 14.13797 -58.95672 28797 ft 536 kts 217°
2026-04-28 14:38 14.10836 -58.98010 28459 ft 532 kts 217°
2026-04-28 14:39 14.07908 -59.00322 28122 ft 529 kts 217°
2026-04-28 14:39 14.04997 -59.02619 27785 ft 528 kts 217°
2026-04-28 14:39 14.02061 -59.04935 27449 ft 524 kts 217°
2026-04-28 14:39 13.99196 -59.07194 27115 ft 523 kts 217°
2026-04-28 14:40 13.96290 -59.09485 26778 ft 519 kts 217°
2026-04-28 14:40 13.94407 -59.10968 26556 ft 517 kts 217°
2026-04-28 14:40 13.90606 -59.13963 26107 ft 514 kts 217°
2026-04-28 14:40 13.87759 -59.16204 25774 ft 511 kts 217°
2026-04-28 14:41 13.84954 -59.18412 25445 ft 507 kts 217°
2026-04-28 14:41 13.82161 -59.20610 25113 ft 505 kts 217°
2026-04-28 14:41 13.79362 -59.22810 24780 ft 504 kts 217°
2026-04-28 14:41 13.76573 -59.25003 24448 ft 500 kts 217°
2026-04-28 14:42 13.73809 -59.27179 24115 ft 497 kts 217°
2026-04-28 14:42 13.71057 -59.29339 23784 ft 496 kts 217°
2026-04-28 14:42 13.68333 -59.31480 23458 ft 493 kts 217°
2026-04-28 14:42 13.65621 -59.33611 23130 ft 491 kts 217°
2026-04-28 14:43 13.62909 -59.35739 22802 ft 488 kts 217°
2026-04-28 14:43 13.60253 -59.37825 22480 ft 486 kts 216°
2026-04-28 14:43 13.57554 -59.39942 22158 ft 483 kts 216°
2026-04-28 14:43 13.54885 -59.42036 21840 ft 483 kts 216°
2026-04-28 14:44 13.52231 -59.44117 21524 ft 481 kts 216°
2026-04-28 14:44 13.49578 -59.46196 21207 ft 478 kts 216°
2026-04-28 14:44 13.46911 -59.48286 20888 ft 478 kts 217°
2026-04-28 14:44 13.44302 -59.50330 20573 ft 477 kts 216°
2026-04-28 14:45 13.41646 -59.52412 20252 ft 475 kts 216°
2026-04-28 14:45 13.39019 -59.54468 19936 ft 474 kts 217°
2026-04-28 14:45 13.36409 -59.56511 19510 ft 472 kts 217°
2026-04-28 14:45 13.33826 -59.58531 18860 ft 469 kts 217°
2026-04-28 14:46 13.31249 -59.60550 18185 ft 465 kts 217°
2026-04-28 14:46 13.28652 -59.62578 17508 ft 462 kts 217°
2026-04-28 14:46 13.26119 -59.64560 16837 ft 460 kts 217°
2026-04-28 14:46 13.23552 -59.66534 16166 ft 457 kts 212°
2026-04-28 14:47 13.20710 -59.67930 15522 ft 452 kts 193°
2026-04-28 14:47 13.17631 -59.68245 14870 ft 448 kts 172°
2026-04-28 14:47 13.14647 -59.67461 14064 ft 442 kts 154°
2026-04-28 14:47 13.11727 -59.66332 13205 ft 444 kts 163°
2026-04-28 14:48 13.08726 -59.65581 12360 ft 447 kts 164°
2026-04-28 14:48 13.05679 -59.64973 11508 ft 451 kts 175°
2026-04-28 14:48 13.02590 -59.65263 10681 ft 449 kts 195°
2026-04-28 14:48 12.99818 -59.66654 9927 ft 436 kts 218°
2026-04-28 14:49 12.97873 -59.68910 9476 ft 408 kts 242°
2026-04-28 14:49 12.96811 -59.71478 9036 ft 381 kts 250°
2026-04-28 14:49 12.95900 -59.73935 8517 ft 353 kts 252°
2026-04-28 14:49 12.95494 -59.76232 7899 ft 322 kts 278°
2026-04-28 14:50 12.96166 -59.78286 7460 ft 303 kts 310°
2026-04-28 14:50 12.97524 -59.79924 7100 ft 299 kts 315°
2026-04-28 14:50 12.98905 -59.81543 6654 ft 297 kts 314°
2026-04-28 14:50 13.00330 -59.83075 6199 ft 295 kts 328°
2026-04-28 14:51 13.02157 -59.83868 5798 ft 283 kts
2026-04-28 14:51 13.04030 -59.83500 5460 ft 270 kts 37°
2026-04-28 14:51 13.05272 -59.82156 5128 ft 262 kts 71°
2026-04-28 14:51 13.05466 -59.80362 4794 ft 259 kts 105°
2026-04-28 14:52 13.04755 -59.78682 4426 ft 258 kts 115°
2026-04-28 14:52 13.04070 -59.77010 3973 ft 254 kts 105°
2026-04-28 14:52 13.03578 -59.75310 3509 ft 252 kts 105°
2026-04-28 14:52 13.03072 -59.73603 3098 ft 247 kts 106°
2026-04-28 14:53 13.02596 -59.71921 2842 ft 246 kts 102°
2026-04-28 14:53 13.02405 -59.70190 2790 ft 247 kts 88°
2026-04-28 14:53 13.02737 -59.68461 2815 ft 249 kts 74°
2026-04-28 14:53 13.03205 -59.66761 2813 ft 250 kts 79°
2026-04-28 14:54 13.03577 -59.65005 2802 ft 250 kts 78°
2026-04-28 14:54 13.04007 -59.63282 2650 ft 252 kts 77°
2026-04-28 14:54 13.04411 -59.61626 2235 ft 224 kts 78°
2026-04-28 14:54 13.04777 -59.60125 1940 ft 212 kts 77°
2026-04-28 14:55 13.05129 -59.58691 1937 ft 207 kts 78°
2026-04-28 14:55 13.05485 -59.57241 1620 ft 212 kts 77°
2026-04-28 14:55 13.05841 -59.55799 1085 ft 197 kts 77°
2026-04-28 14:55 13.06172 -59.54546 724 ft 187 kts 77°
2026-04-28 14:56 13.06517 -59.53180 703 ft 202 kts 79°
2026-04-28 14:56 13.06829 -59.51824 437 ft 194 kts 78°
2026-04-28 14:56 13.07149 -59.50528 199 ft 171 kts 78°
2026-04-28 14:56 13.07402 -59.49463 175 ft 126 kts 76°
2026-04-28 14:57 13.07545 -59.48851 175 ft 59 kts 71°
2026-04-28 14:57 13.07619 -59.48613 175 ft 45 kts 77°
2026-04-28 14:57 13.07678 -59.48359 174 ft 8 kts 52°
2026-04-28 14:57 13.07718 -59.48342 174 ft 3 kts
2026-04-28 14:58 13.07734 -59.48344 175 ft 2 kts 347°
2026-04-28 14:58 13.07753 -59.48348 175 ft 0 kts 346°
2026-04-28 14:58 13.07770 -59.48353 176 ft 4 kts 345°
2026-04-28 14:58 13.07810 -59.48363 177 ft 7 kts 345°
2026-04-28 14:59 13.07846 -59.48384 178 ft 3 kts 308°
2026-04-28 14:59 13.07854 -59.48402 178 ft 3 kts 281°
2026-04-28 14:59 13.07850 -59.48443 179 ft 7 kts 256°
2026-04-28 14:59 13.07835 -59.48502 180 ft 6 kts 255°
2026-04-28 15:00 13.07831 -59.48533 179 ft 4 kts 291°
2026-04-28 15:00 13.07858 -59.48544 180 ft 3 kts
2026-04-28 15:00 13.07875 -59.48546 180 ft 3 kts 346°
2026-04-28 15:00 13.07896 -59.48551 181 ft 0 kts 346°
2026-04-28 15:01 13.07901 -59.48552 181 ft 0 kts 346°